Location: Newark
(53.2933°N, 6.3959°W)
Time: 01:24:45
(UTC+00:00)

Envisat - Pass Details

Date: 23 February 2020
Orbit: 764 x 766 km, 98.1° (Epoch: 08 April)

Event Time Altitude Azimuth Distance (km) Brightness Sun altitude
Rises 19:33:46 0° 214° (SW) 3,226 6.6 -16.0°
Reaches altitude 10° 19:36:57 10° 235° (SW) 2,305 6.2 -16.5°
Maximum altitude 19:40:06 16° 274° (W) 1,907 6.2 -17.0°
Drops below altitude 10° 19:43:15 10° 313° (NW) 2,316 6.3 -17.4°
Sets 19:46:28 0° 334° (NNW) 3,249 6.7 -17.9°
